This is the latest recevied weather packets stored in our database for station/object K7NDG. If no packets are shown the sender has not sent any weather packets the latest 10 day(s).
| Time | Temp. | Humidity | Pressure | Rain* | Wind** | Luminosity | Snow |
|---|---|---|---|---|---|---|---|
| 1788550493 | 20° C | 66% | 1012.7 hPa | 0 mm | - | 531 W/m² | - |
| 1788550189 | 19.44° C | 65% | 1012.7 hPa | 0 mm | - | 498 W/m² | - |
| 1788549883 | 20° C | 65% | 1013 hPa | 0 mm | - | 488 W/m² | - |
| 1788549580 | 20° C | 67% | 1012.9 hPa | 0 mm | - | 489 W/m² | - |
| 1788549276 | 20° C | 68% | 1012.8 hPa | 0 mm | - | 494 W/m² | - |
| 1788548973 | 19.44° C | 68% | 1013 hPa | 0 mm | - | 510 W/m² | - |
| 1788548673 | 19.44° C | 68% | 1013.2 hPa | 0 mm | - | 466 W/m² | - |
| 1788548369 | 19.44° C | 69% | 1013 hPa | 0 mm | - | 500 W/m² | - |
| 1788548065 | 18.89° C | 70% | 1013.1 hPa | 0 mm | - | 509 W/m² | - |
| 1788547765 | 18.89° C | 70% | 1013.1 hPa | 0 mm | - | 483 W/m² | - |
| 1788547459 | 18.89° C | 73% | 1013 hPa | 0 mm | - | 476 W/m² | - |
| 1788547155 | 18.33° C | 74% | 1013 hPa | 0 mm | - | 486 W/m² | - |
| 1788546850 | 17.78° C | 75% | 1013.3 hPa | 0 mm | - | 492 W/m² | - |
| 1788546546 | 17.78° C | 77% | 1013.2 hPa | 0 mm | - | 493 W/m² | - |
| 1788546240 | 17.22° C | 76% | 1013.3 hPa | 0 mm | - | 511 W/m² | - |
| 1788545935 | 16.67° C | 79% | 1013.1 hPa | 0 mm | - | 516 W/m² | - |
| 1788545630 | 16.11° C | 78% | 1013.4 hPa | 0 mm | - | 229 W/m² | - |
| 1788545325 | 16.11° C | 78% | 1013.2 hPa | 0 mm | - | 181 W/m² | - |
| 1788545021 | 16.11° C | 79% | 1012.9 hPa | 0 mm | - | 164 W/m² | - |
| 1788544720 | 15.56° C | 80% | 1013.3 hPa | 0 mm | - | 417 W/m² | - |
| 1788544418 | 15.56° C | 81% | 1013.2 hPa | 0 mm | - | 437 W/m² | - |
| 1788544113 | 15° C | 82% | 1013.4 hPa | 0 mm | - | 395 W/m² | - |
| 1788543809 | 15° C | 83% | 1013.2 hPa | 0 mm | - | 149 W/m² | - |
| 1788543505 | 15° C | 85% | 1013.1 hPa | 0 mm | - | 136 W/m² | - |
| 1788543200 | 15° C | 86% | 1013.2 hPa | 0 mm | - | 184 W/m² | - |
* Rain latest hour (hover to see other rain measurements)
** Current wind speed in m/s (hover to see current wind gust speed)